This is the latest recevied weather packets stored in our database for station/object WK7G. If no packets are shown the sender has not sent any weather packets the latest 1 day(s).
| Time | Temp. | Humidity | Pressure | Rain* | Wind** | Luminosity | Snow |
|---|---|---|---|---|---|---|---|
| 1778010432 | 12.22° C | 32% | 1003.8 hPa | 0 mm | 2.68 m/s, 318° | 791 W/m² | - |
| 1778010129 | 12.22° C | 32% | 1004 hPa | 0 mm | 1.79 m/s, 327° | 781 W/m² | - |
| 1778009824 | 12.22° C | 33% | 1003.9 hPa | 0 mm | 4.02 m/s, 328° | 809 W/m² | - |
| 1778009522 | 12.22° C | 34% | 1003.4 hPa | 0 mm | 2.68 m/s, 325° | 783 W/m² | - |
| 1778009221 | 12.78° C | 39% | 1003.7 hPa | 0 mm | 4.02 m/s, 8° | 791 W/m² | - |
| 1778008918 | 12.78° C | 36% | 1003.8 hPa | 0 mm | 2.24 m/s, 295° | 819 W/m² | - |
| 1778008616 | 12.78° C | 34% | 1003.4 hPa | 0 mm | 5.36 m/s, 342° | 809 W/m² | - |
| 1778008314 | 12.22° C | 34% | 1003.9 hPa | 0 mm | 2.68 m/s, 309° | 801 W/m² | - |
| 1778008009 | 12.22° C | 35% | 1003.9 hPa | 0 mm | 3.13 m/s, 207° | 831 W/m² | - |
| 1778007709 | 12.78° C | 33% | 1003.7 hPa | 0 mm | 2.68 m/s, 239° | 862 W/m² | - |
| 1778007406 | 12.22° C | 35% | 1003.8 hPa | 0 mm | 1.34 m/s, 251° | 872 W/m² | - |
| 1778007103 | 12.22° C | 34% | 1003.8 hPa | 0 mm | 2.24 m/s, 290° | 866 W/m² | - |
| 1778006799 | 12.22° C | 34% | 1003.8 hPa | 0 mm | 3.13 m/s, 348° | 867 W/m² | - |
| 1778006496 | 12.78° C | 35% | 1003.9 hPa | 0 mm | 2.68 m/s, 241° | 885 W/m² | - |
| 1778006193 | 12.78° C | 34% | 1003.9 hPa | 0 mm | 5.81 m/s, 301° | 878 W/m² | - |
| 1778005891 | 12.22° C | 37% | 1003.8 hPa | 0 mm | 1.34 m/s, 283° | 893 W/m² | - |
| 1778005587 | 12.22° C | 35% | 1004 hPa | 0 mm | 3.13 m/s, 320° | 864 W/m² | - |
| 1778005284 | 12.22° C | 33% | 1003.9 hPa | 0 mm | 1.79 m/s, 220° | 883 W/m² | - |
| 1778004980 | 12.22° C | 36% | 1004 hPa | 0 mm | 3.13 m/s, 308° | 874 W/m² | - |
| 1778004678 | 12.22° C | 34% | 1004 hPa | 0 mm | 2.68 m/s, 302° | 856 W/m² | - |
| 1778004374 | 11.67° C | 35% | 1004 hPa | 0 mm | 1.79 m/s, 10° | 884 W/m² | - |
| 1778004072 | 11.67° C | 34% | 1003.7 hPa | 0 mm | 3.58 m/s, 334° | 885 W/m² | - |
| 1778003767 | 12.22° C | 37% | 1004 hPa | 0 mm | 1.34 m/s, 326° | 890 W/m² | - |
| 1778003464 | 12.22° C | 36% | 1003.8 hPa | 0 mm | 0.89 m/s, 309° | 895 W/m² | - |
| 1778003160 | 11.67° C | 35% | 1003.8 hPa | 0 mm | 4.47 m/s, 239° | 885 W/m² | - |
* Rain latest hour (hover to see other rain measurements)
** Current wind speed in m/s (hover to see current wind gust speed)